QPF
0.01 0.03 0.04 0.09 0.14 0.12 0.09 0.05 0.03 0.02 0.02 0.03 0.01 0.01 0.02 0.04 0.05 0.09 0.12 0.11 0.05 0.09 0.15 0.18 0.20 0.08 0.05 0.03 0.04 0.05 0.06 0.04 0.02 0.02 0.02 0.03 0.04 0.04 0.04 0.04 0.07 0.11 0.15 0.12 0.09 0.10 0.07 0.05 0.04
0.04 0.04 0.07 0.09 0.11 0.12 0.09 0.05 0.02 0.02 0.02 0.02 0.01 0.00 0.01 0.02 0.03 0.08 0.12 0.10 0.03 0.08 0.09 0.09 0.18 0.07 0.06 0.04 0.04 0.05 0.07 0.04 0.03 0.02 0.02 0.02 0.03 0.03 0.03 0.03 0.07 0.09 0.08 0.07 0.06 0.05 0.03 0.03 0.02
0.06 0.08 0.12 0.13 0.11 0.07 0.07 0.04 0.01 0.01 0.01 0.01 0.00 0.00 0.01 0.03 0.05 0.08 0.09 0.06 0.02 0.05 0.09 0.11 0.09 0.06 0.05 0.03 0.02 0.05 0.07 0.06 0.04 0.03 0.02 0.02 0.02 0.03 0.04 0.03 0.05 0.06 0.06 0.06 0.05 0.03 0.03 0.02 0.02
0.10 0.14 0.15 0.16 0.11 0.06 0.04 0.03 0.01 0.01 0.01 0.01 0.00 0.01 0.01 0.02 0.04 0.07 0.06 0.02 0.01 0.02 0.04 0.04 0.04 0.03 0.04 0.04 0.03 0.05 0.09 0.06 0.05 0.05 0.03 0.03 0.02 0.03 0.04 0.05 0.06 0.07 0.07 0.06 0.05 0.05 0.05 0.04 0.03
0.11 0.13 0.14 0.09 0.06 0.05 0.03 0.02 0.01 0.01 0.02 0.04 0.01 0.01 0.03 0.04 0.04 0.04 0.03 0.02 0.01 0.01 0.03 0.05 0.04 0.03 0.03 0.04 0.03 0.04 0.06 0.06 0.06 0.06 0.04 0.03 0.04 0.05 0.05 0.06 0.07 0.09 0.09 0.06 0.05 0.05 0.05 0.05 0.04
0.10 0.14 0.10 0.04 0.05 0.03 0.02 0.01 0.00 0.00 0.01 0.08 0.03 0.02 0.04 0.06 0.05 0.03 0.02 0.02 0.01 0.01 0.01 0.03 0.05 0.03 0.04 0.04 0.03 0.03 0.04 0.05 0.05 0.05 0.03 0.03 0.04 0.04 0.04 0.06 0.08 0.07 0.06 0.05 0.05 0.05 0.04 0.04 0.03
0.15 0.14 0.06 0.03 0.03 0.02 0.02 0.01 0.00 0.00 0.01 0.03 0.02 0.04 0.06 0.08 0.06 0.03 0.02 0.01 0.00 0.01 0.01 0.02 0.03 0.03 0.05 0.06 0.05 0.05 0.04 0.04 0.05 0.04 0.04 0.04 0.03 0.03 0.03 0.05 0.07 0.07 0.06 0.05 0.05 0.06 0.05 0.04 0.03
0.13 0.07 0.04 0.02 0.02 0.02 0.01 0.01 0.00 0.00 0.01 0.02 0.01 0.03 0.04 0.05 0.05 0.03 0.04 0.02 0.01 0.02 0.01 0.01 0.02 0.01 0.02 0.04 0.06 0.05 0.05 0.06 0.05 0.05 0.05 0.05 0.05 0.04 0.04 0.03 0.04 0.07 0.06 0.06 0.05 0.06 0.05 0.04 0.03
0.04 0.04 0.03 0.01 0.01 0.03 0.02 0.00 0.00 0.00 0.01 0.02 0.01 0.01 0.02 0.02 0.04 0.03 0.05 0.04 0.02 0.02 0.02 0.01 0.01 0.01 0.02 0.04 0.08 0.09 0.07 0.07 0.07 0.06 0.06 0.04 0.04 0.03 0.02 0.02 0.05 0.07 0.06 0.06 0.06 0.08 0.06 0.05 0.04
0.02 0.02 0.01 0.01 0.01 0.02 0.01 0.00 0.00 0.00 0.01 0.03 0.02 0.02 0.02 0.02 0.03 0.03 0.04 0.03 0.02 0.02 0.02 0.02 0.01 0.01 0.01 0.03 0.09 0.09 0.08 0.07 0.05 0.05 0.05 0.04 0.03 0.03 0.02 0.04 0.06 0.08 0.08 0.06 0.06 0.08 0.07 0.06 0.06
0.01 0.01 0.01 0.01 0.01 0.00 0.01 0.01 0.01 0.01 0.02 0.02 0.02 0.03 0.02 0.02 0.04 0.04 0.04 0.04 0.03 0.02 0.02 0.02 0.01 0.01 0.01 0.02 0.10 0.10 0.07 0.05 0.04 0.04 0.04 0.04 0.03 0.03 0.03 0.04 0.06 0.07 0.08 0.07 0.06 0.07 0.06 0.06 0.07
0.01 0.01 0.01 0.01 0.01 0.01 0.00 0.01 0.01 0.01 0.04 0.08 0.01 0.01 0.02 0.02 0.05 0.04 0.03 0.05 0.04 0.03 0.02 0.02 0.03 0.03 0.02 0.02 0.08 0.08 0.06 0.05 0.04 0.05 0.05 0.04 0.04 0.03 0.03 0.04 0.05 0.06 0.07 0.08 0.08 0.11 0.09 0.10 0.08
0.01 0.01 0.01 0.01 0.01 0.01 0.00 0.01 0.01 0.02 0.04 0.11 0.05 0.02 0.02 0.02 0.03 0.04 0.06 0.08 0.05 0.05 0.03 0.02 0.02 0.02 0.02 0.02 0.06 0.07 0.07 0.05 0.05 0.05 0.05 0.05 0.05 0.04 0.03 0.04 0.04 0.06 0.07 0.07 0.09 0.11 0.12 0.11 0.09
0.01 0.02 0.02 0.02 0.01 0.01 0.01 0.01 0.05 0.02 0.04 0.03 0.03 0.02 0.02 0.02 0.02 0.04 0.05 0.06 0.04 0.02 0.02 0.02 0.01 0.01 0.01 0.01 0.03 0.03 0.02 0.03 0.04 0.04 0.05 0.04 0.03 0.02 0.02 0.03 0.04 0.05 0.07 0.07 0.07 0.09 0.11 0.11 0.12
0.01 0.02 0.03 0.02 0.02 0.01 0.01 0.02 0.06 0.03 0.02 0.01 0.01 0.02 0.03 0.04 0.03 0.02 0.02 0.03 0.02 0.02 0.02 0.01 0.01 0.01 0.00 0.01 0.01 0.01 0.01 0.02 0.03 0.03 0.04 0.04 0.04 0.04 0.03 0.03 0.05 0.06 0.07 0.08 0.10 0.11 0.12 0.11 0.12
0.01 0.02 0.01 0.01 0.01 0.02 0.01 0.01 0.02 0.01 0.01 0.01 0.01 0.01 0.03 0.04 0.03 0.02 0.01 0.02 0.02 0.01 0.02 0.01 0.01 0.01 0.01 0.01 0.01 0.01 0.01 0.02 0.03 0.04 0.04 0.04 0.04 0.05 0.03 0.03 0.04 0.04 0.05 0.07 0.09 0.09 0.10 0.10 0.09
0.02 0.01 0.01 0.01 0.01 0.01 0.01 0.01 0.01 0.02 0.02 0.02 0.01 0.01 0.04 0.03 0.03 0.02 0.01 0.01 0.01 0.01 0.01 0.01 0.01 0.01 0.01 0.01 0.01 0.01 0.01 0.02 0.02 0.03 0.04 0.04 0.04 0.09 0.08 0.05 0.04 0.05 0.06 0.07 0.08 0.09 0.09 0.09 0.08
0.01 0.01 0.01 0.01 0.01 0.01 0.01 0.00 0.01 0.01 0.01 0.01 0.02 0.02 0.03 0.04 0.03 0.02 0.01 0.02 0.01 0.01 0.01 0.01 0.01 0.01 0.01 0.01 0.00 0.01 0.01 0.02 0.02 0.04 0.04 0.04 0.04 0.04 0.06 0.06 0.06 0.07 0.07 0.07 0.08 0.09 0.09 0.08 0.10
0.00 0.01 0.01 0.01 0.01 0.01 0.01 0.01 0.00 0.01 0.01 0.01 0.04 0.06 0.07 0.07 0.06 0.05 0.03 0.02 0.02 0.02 0.01 0.01 0.01 0.00 0.01 0.00 0.01 0.02 0.02 0.02 0.02 0.03 0.05 0.04 0.06 0.04 0.03 0.02 0.03 0.04 0.05 0.06 0.08 0.09 0.09 0.08 0.11
0.00 0.01 0.01 0.01 0.01 0.01 0.01 0.01 0.01 0.01 0.01 0.01 0.03 0.07 0.10 0.10 0.09 0.06 0.05 0.05 0.02 0.01 0.01 0.00 0.01 0.00 0.00 0.00 0.01 0.01 0.02 0.01 0.01 0.02 0.02 0.03 0.04 0.04 0.02 0.02 0.02 0.03 0.05 0.07 0.08 0.09 0.08 0.07 0.09
0.00 0.00 0.00 0.00 0.01 0.01 0.02 0.03 0.01 0.01 0.01 0.02 0.03 0.07 0.11 0.11 0.09 0.07 0.06 0.05 0.03 0.01 0.00 0.00 0.00 0.00 0.00 0.00 0.00 0.01 0.01 0.01 0.01 0.01 0.01 0.03 0.04 0.03 0.03 0.02 0.03 0.04 0.05 0.08 0.10 0.11 0.08 0.07 0.08
0.00 0.00 0.00 0.00 0.00 0.01 0.02 0.02 0.01 0.01 0.02 0.03 0.04 0.06 0.09 0.10 0.08 0.08 0.05 0.04 0.02 0.01 0.01 0.01 0.01 0.00 0.00 0.00 0.00 0.00 0.00 0.01 0.01 0.01 0.01 0.02 0.02 0.02 0.02 0.02 0.02 0.04 0.06 0.09 0.11 0.12 0.09 0.06 0.07
0.00 0.00 0.00 0.00 0.00 0.01 0.01 0.02 0.01 0.01 0.02 0.03 0.02 0.03 0.06 0.06 0.03 0.04 0.04 0.03 0.01 0.01 0.01 0.01 0.01 0.01 0.01 0.01 0.00 0.00 0.01 0.01 0.01 0.02 0.02 0.02 0.01 0.01 0.02 0.04 0.04 0.05 0.09 0.14 0.16 0.12 0.08 0.06 0.06
0.00 0.00 0.00 0.00 0.01 0.02 0.03 0.02 0.02 0.01 0.01 0.02 0.02 0.03 0.05 0.04 0.02 0.03 0.03 0.02 0.01 0.01 0.01 0.01 0.01 0.02 0.02 0.02 0.01 0.01 0.01 0.01 0.01 0.02 0.02 0.01 0.01 0.01 0.02 0.03 0.05 0.06 0.09 0.13 0.13 0.10 0.08 0.07 0.06
0.00 0.00 0.01 0.01 0.02 0.04 0.04 0.02 0.01 0.01 0.01 0.02 0.04 0.07 0.11 0.05 0.02 0.02 0.03 0.03 0.02 0.01 0.00 0.01 0.01 0.01 0.02 0.03 0.04 0.03 0.03 0.02 0.02 0.02 0.02 0.01 0.01 0.02 0.03 0.03 0.05 0.07 0.11 0.14 0.13 0.09 0.08 0.07 0.07
0.00 0.00 0.00 0.01 0.01 0.01 0.02 0.04 0.03 0.01 0.01 0.01 0.01 0.02 0.03 0.01 0.01 0.01 0.01 0.01 0.01 0.01 0.01 0.01 0.01 0.01 0.01 0.05 0.10 0.08 0.05 0.03 0.03 0.03 0.02 0.02 0.03 0.03 0.03 0.03 0.04 0.05 0.08 0.10 0.10 0.08 0.08 0.07 0.08
0.00 0.00 0.00 0.00 0.01 0.01 0.03 0.03 0.02 0.01 0.01 0.01 0.02 0.02 0.02 0.01 0.01 0.01 0.01 0.01 0.01 0.01 0.00 0.01 0.01 0.01 0.01 0.05 0.15 0.12 0.05 0.03 0.02 0.02 0.02 0.02 0.02 0.02 0.03 0.04 0.04 0.04 0.06 0.08 0.08 0.07 0.07 0.07 0.06
0.00 0.00 0.00 0.00 0.01 0.02 0.03 0.02 0.01 0.01 0.01 0.01 0.02 0.02 0.01 0.01 0.01 0.01 0.01 0.01 0.00 0.00 0.00 0.00 0.00 0.01 0.01 0.05 0.10 0.06 0.02 0.01 0.02 0.02 0.01 0.01 0.02 0.02 0.03 0.03 0.03 0.04 0.05 0.07 0.06 0.05 0.06 0.05 0.03
0.00 0.00 0.00 0.00 0.01 0.01 0.01 0.01 0.01 0.00 0.01 0.01 0.01 0.01 0.01 0.01 0.01 0.01 0.01 0.01 0.01 0.00 0.00 0.00 0.00 0.01 0.00 0.01 0.01 0.01 0.01 0.01 0.01 0.01 0.01 0.01 0.02 0.02 0.03 0.03 0.03 0.03 0.03 0.04 0.04 0.04 0.03 0.02 0.02
0.00 0.00 0.00 0.00 0.00 0.01 0.00 0.01 0.01 0.01 0.01 0.01 0.00 0.01 0.01 0.01 0.01 0.01 0.01 0.01 0.01 0.01 0.01 0.01 0.01 0.01 0.01 0.02 0.02 0.02 0.02 0.02 0.02 0.02 0.02 0.03 0.04 0.04 0.04 0.03 0.02 0.02 0.02 0.03 0.03 0.03 0.02 0.02 0.02
MSLP
1009.53 1010.40 1011.27 1012.00 1012.46 1012.56 1012.29 1011.71 1010.97 1010.20 1009.58 1009.22 1009.14 1009.34 1009.72 1010.15 1010.52 1010.71 1010.70 1010.52 1010.25 1009.98 1009.81 1009.81 1010.00 1010.35 1010.79 1011.24 1011.64 1011.95 1012.17 1012.34 1012.51 1012.73 1013.03 1013.41 1013.84 1014.28 1014.67 1014.98 1015.18 1015.28 1015.33 1015.35 1015.38 1015.45 1015.56 1015.69 1015.82
1009.79 1010.77 1011.67 1012.35 1012.68 1012.62 1012.19 1011.46 1010.59 1009.74 1009.07 1008.67 1008.58 1008.76 1009.11 1009.52 1009.87 1010.08 1010.12 1010.03 1009.87 1009.73 1009.70 1009.81 1010.08 1010.48 1010.93 1011.38 1011.77 1012.08 1012.32 1012.51 1012.72 1012.97 1013.29 1013.68 1014.09 1014.50 1014.84 1015.10 1015.27 1015.36 1015.40 1015.43 1015.48 1015.57 1015.69 1015.83 1015.96
1010.12 1011.14 1012.02 1012.60 1012.81 1012.60 1012.03 1011.21 1010.27 1009.40 1008.73 1008.33 1008.22 1008.37 1008.68 1009.04 1009.34 1009.54 1009.61 1009.59 1009.53 1009.52 1009.61 1009.84 1010.19 1010.64 1011.11 1011.56 1011.94 1012.25 1012.49 1012.70 1012.93 1013.20 1013.53 1013.90 1014.28 1014.64 1014.94 1015.15 1015.29 1015.38 1015.43 1015.49 1015.57 1015.69 1015.82 1015.96 1016.08
1010.47 1011.48 1012.28 1012.75 1012.82 1012.50 1011.85 1010.99 1010.07 1009.23 1008.61 1008.25 1008.15 1008.26 1008.50 1008.78 1009.02 1009.17 1009.23 1009.26 1009.29 1009.39 1009.60 1009.93 1010.36 1010.84 1011.33 1011.78 1012.15 1012.45 1012.70 1012.92 1013.17 1013.45 1013.77 1014.11 1014.45 1014.76 1015.00 1015.19 1015.31 1015.40 1015.48 1015.57 1015.69 1015.83 1015.97 1016.10 1016.19
1010.80 1011.73 1012.41 1012.75 1012.70 1012.31 1011.64 1010.82 1009.99 1009.26 1008.74 1008.44 1008.36 1008.43 1008.60 1008.77 1008.91 1008.99 1009.04 1009.08 1009.19 1009.38 1009.69 1010.10 1010.59 1011.11 1011.60 1012.03 1012.39 1012.68 1012.93 1013.17 1013.43 1013.71 1014.02 1014.34 1014.63 1014.89 1015.09 1015.24 1015.36 1015.46 1015.57 1015.70 1015.85 1016.01 1016.15 1016.25 1016.31
1011.03 1011.83 1012.36 1012.56 1012.43 1012.01 1011.39 1010.69 1010.01 1009.45 1009.07 1008.86 1008.81 1008.84 1008.92 1008.98 1009.01 1009.01 1009.02 1009.08 1009.23 1009.50 1009.89 1010.37 1010.89 1011.42 1011.90 1012.32 1012.66 1012.94 1013.20 1013.45 1013.72 1014.01 1014.32 1014.61 1014.87 1015.08 1015.25 1015.37 1015.48 1015.59 1015.73 1015.89 1016.06 1016.22 1016.35 1016.42 1016.42
1011.12 1011.75 1012.12 1012.19 1012.00 1011.61 1011.09 1010.56 1010.08 1009.73 1009.51 1009.41 1009.39 1009.39 1009.38 1009.34 1009.26 1009.19 1009.16 1009.23 1009.42 1009.74 1010.18 1010.70 1011.24 1011.76 1012.22 1012.61 1012.93 1013.21 1013.47 1013.75 1014.05 1014.36 1014.67 1014.95 1015.18 1015.36 1015.48 1015.57 1015.67 1015.78 1015.93 1016.10 1016.29 1016.45 1016.55 1016.58 1016.53
1011.04 1011.49 1011.69 1011.66 1011.44 1011.11 1010.74 1010.40 1010.15 1010.01 1009.96 1009.97 1009.98 1009.96 1009.87 1009.74 1009.57 1009.44 1009.39 1009.47 1009.70 1010.06 1010.54 1011.07 1011.61 1012.10 1012.52 1012.88 1013.18 1013.46 1013.75 1014.06 1014.40 1014.74 1015.07 1015.35 1015.56 1015.70 1015.78 1015.84 1015.91 1016.01 1016.15 1016.32 1016.50 1016.65 1016.73 1016.72 1016.62
1010.81 1011.08 1011.14 1011.03 1010.82 1010.56 1010.35 1010.21 1010.17 1010.23 1010.33 1010.43 1010.48 1010.43 1010.30 1010.10 1009.88 1009.72 1009.67 1009.77 1010.03 1010.42 1010.91 1011.44 1011.95 1012.41 1012.79 1013.11 1013.40 1013.69 1014.01 1014.37 1014.76 1015.14 1015.50 1015.78 1015.98 1016.09 1016.13 1016.15 1016.17 1016.24 1016.36 1016.51 1016.67 1016.80 1016.85 1016.81 1016.68
1010.50 1010.62 1010.58 1010.42 1010.22 1010.06 1009.98 1010.02 1010.16 1010.37 1010.59 1010.75 1010.82 1010.76 1010.60 1010.37 1010.14 1009.99 1009.96 1010.09 1010.37 1010.79 1011.28 1011.79 1012.26 1012.66 1013.00 1013.30 1013.58 1013.89 1014.25 1014.66 1015.10 1015.53 1015.91 1016.21 1016.39 1016.48 1016.48 1016.45 1016.43 1016.45 1016.53 1016.65 1016.78 1016.88 1016.91 1016.85 1016.69
1010.22 1010.24 1010.12 1009.94 1009.77 1009.68 1009.72 1009.88 1010.14 1010.45 1010.74 1010.93 1011.01 1010.95 1010.78 1010.56 1010.35 1010.22 1010.23 1010.40 1010.72 1011.14 1011.61 1012.08 1012.50 1012.86 1013.16 1013.43 1013.72 1014.05 1014.45 1014.91 1015.40 1015.88 1016.29 1016.59 1016.77 1016.82 1016.79 1016.72 1016.65 1016.63 1016.66 1016.74 1016.84 1016.91 1016.92 1016.84 1016.66
1010.07 1010.03 1009.88 1009.70 1009.57 1009.54 1009.64 1009.87 1010.19 1010.53 1010.83 1011.03 1011.09 1011.03 1010.88 1010.69 1010.52 1010.45 1010.51 1010.72 1011.04 1011.45 1011.89 1012.31 1012.68 1012.99 1013.27 1013.53 1013.83 1014.19 1014.63 1015.13 1015.65 1016.16 1016.58 1016.89 1017.06 1017.10 1017.04 1016.93 1016.83 1016.77 1016.76 1016.80 1016.86 1016.90 1016.89 1016.79 1016.59
1010.13 1010.09 1009.94 1009.78 1009.67 1009.68 1009.81 1010.05 1010.36 1010.68 1010.94 1011.11 1011.16 1011.10 1010.97 1010.83 1010.73 1010.72 1010.82 1011.05 1011.37 1011.75 1012.13 1012.50 1012.81 1013.09 1013.34 1013.61 1013.92 1014.31 1014.78 1015.31 1015.85 1016.36 1016.78 1017.08 1017.24 1017.27 1017.20 1017.08 1016.96 1016.87 1016.83 1016.83 1016.86 1016.87 1016.84 1016.72 1016.51
1010.45 1010.42 1010.30 1010.17 1010.09 1010.11 1010.23 1010.43 1010.69 1010.93 1011.13 1011.25 1011.27 1011.22 1011.14 1011.05 1011.02 1011.06 1011.20 1011.42 1011.71 1012.03 1012.35 1012.65 1012.92 1013.16 1013.41 1013.70 1014.04 1014.46 1014.94 1015.47 1016.00 1016.49 1016.89 1017.16 1017.30 1017.33 1017.26 1017.15 1017.03 1016.94 1016.89 1016.87 1016.87 1016.85 1016.79 1016.65 1016.43
1010.96 1010.96 1010.87 1010.78 1010.72 1010.74 1010.83 1010.98 1011.15 1011.30 1011.42 1011.48 1011.48 1011.45 1011.41 1011.39 1011.41 1011.50 1011.65 1011.86 1012.09 1012.34 1012.57 1012.80 1013.02 1013.25 1013.51 1013.82 1014.20 1014.64 1015.12 1015.63 1016.13 1016.56 1016.90 1017.14 1017.26 1017.29 1017.24 1017.16 1017.07 1017.00 1016.95 1016.93 1016.90 1016.86 1016.77 1016.61 1016.37
1011.55 1011.58 1011.53 1011.48 1011.45 1011.46 1011.51 1011.59 1011.67 1011.73 1011.77 1011.77 1011.77 1011.76 1011.78 1011.83 1011.91 1012.03 1012.18 1012.34 1012.50 1012.66 1012.81 1012.97 1013.15 1013.38 1013.66 1014.01 1014.42 1014.87 1015.35 1015.81 1016.24 1016.59 1016.86 1017.04 1017.13 1017.16 1017.15 1017.11 1017.07 1017.04 1017.02 1016.99 1016.96 1016.90 1016.78 1016.60 1016.35
1012.07 1012.12 1012.12 1012.11 1012.11 1012.13 1012.16 1012.17 1012.17 1012.14 1012.11 1012.08 1012.07 1012.11 1012.19 1012.31 1012.45 1012.61 1012.74 1012.85 1012.93 1013.00 1013.07 1013.16 1013.32 1013.55 1013.86 1014.25 1014.69 1015.15 1015.60 1016.01 1016.34 1016.60 1016.77 1016.88 1016.94 1016.97 1016.99 1017.01 1017.03 1017.05 1017.07 1017.06 1017.02 1016.94 1016.81 1016.62 1016.37
1012.40 1012.46 1012.51 1012.56 1012.61 1012.65 1012.66 1012.63 1012.55 1012.45 1012.36 1012.30 1012.31 1012.39 1012.54 1012.74 1012.95 1013.14 1013.27 1013.34 1013.35 1013.34 1013.33 1013.37 1013.51 1013.75 1014.10 1014.53 1015.00 1015.46 1015.87 1016.20 1016.44 1016.58 1016.65 1016.68 1016.70 1016.72 1016.78 1016.85 1016.94 1017.03 1017.09 1017.11 1017.07 1016.99 1016.85 1016.66 1016.43
1012.46 1012.54 1012.65 1012.77 1012.89 1012.97 1012.98 1012.91 1012.77 1012.60 1012.45 1012.36 1012.38 1012.51 1012.74 1013.02 1013.31 1013.55 1013.70 1013.75 1013.71 1013.64 1013.57 1013.58 1013.70 1013.96 1014.34 1014.80 1015.28 1015.74 1016.11 1016.37 1016.50 1016.53 1016.50 1016.44 1016.42 1016.44 1016.52 1016.65 1016.80 1016.95 1017.05 1017.10 1017.08 1016.99 1016.86 1016.69 1016.49
1012.24 1012.37 1012.56 1012.77 1012.97 1013.10 1013.11 1013.01 1012.80 1012.55 1012.33 1012.21 1012.23 1012.40 1012.70 1013.08 1013.45 1013.76 1013.95 1014.02 1013.97 1013.86 1013.76 1013.74 1013.86 1014.12 1014.52 1015.00 1015.50 1015.94 1016.27 1016.45 1016.49 1016.42 1016.30 1016.18 1016.11 1016.12 1016.22 1016.39 1016.60 1016.79 1016.94 1017.01 1017.01 1016.93 1016.81 1016.67 1016.52
1011.83 1012.03 1012.33 1012.66 1012.96 1013.14 1013.15 1012.99 1012.70 1012.36 1012.04 1011.85 1011.84 1012.03 1012.39 1012.84 1013.32 1013.72 1013.99 1014.09 1014.07 1013.97 1013.86 1013.83 1013.94 1014.20 1014.60 1015.08 1015.58 1016.00 1016.29 1016.42 1016.39 1016.25 1016.05 1015.87 1015.77 1015.77 1015.88 1016.09 1016.33 1016.56 1016.74 1016.83 1016.85 1016.79 1016.69 1016.58 1016.49
1011.35 1011.67 1012.10 1012.57 1012.97 1013.20 1013.20 1012.97 1012.57 1012.08 1011.63 1011.33 1011.25 1011.42 1011.81 1012.34 1012.91 1013.42 1013.78 1013.97 1014.00 1013.93 1013.84 1013.80 1013.90 1014.15 1014.54 1015.00 1015.48 1015.88 1016.14 1016.24 1016.17 1015.98 1015.74 1015.53 1015.41 1015.40 1015.52 1015.74 1016.00 1016.25 1016.45 1016.56 1016.59 1016.55 1016.47 1016.40 1016.37
1010.95 1011.42 1012.02 1012.63 1013.12 1013.39 1013.35 1013.03 1012.48 1011.82 1011.20 1010.75 1010.56 1010.67 1011.06 1011.63 1012.29 1012.90 1013.37 1013.66 1013.78 1013.76 1013.69 1013.66 1013.74 1013.96 1014.31 1014.75 1015.20 1015.58 1015.82 1015.90 1015.82 1015.63 1015.38 1015.17 1015.04 1015.03 1015.14 1015.36 1015.62 1015.88 1016.08 1016.20 1016.24 1016.21 1016.16 1016.12 1016.13
1010.74 1011.38 1012.15 1012.90 1013.47 1013.75 1013.66 1013.22 1012.50 1011.64 1010.82 1010.19 1009.85 1009.87 1010.22 1010.81 1011.52 1012.23 1012.81 1013.21 1013.41 1013.46 1013.42 1013.40 1013.46 1013.64 1013.95 1014.34 1014.75 1015.11 1015.35 1015.44 1015.38 1015.21 1014.99 1014.79 1014.66 1014.65 1014.76 1014.97 1015.22 1015.47 1015.66 1015.78 1015.82 1015.80 1015.76 1015.74 1015.78
1010.76 1011.57 1012.49 1013.35 1013.98 1014.26 1014.10 1013.54 1012.65 1011.59 1010.56 1009.73 1009.23 1009.13 1009.40 1009.97 1010.71 1011.48 1012.15 1012.65 1012.94 1013.05 1013.06 1013.04 1013.08 1013.22 1013.48 1013.82 1014.20 1014.54 1014.78 1014.90 1014.87 1014.75 1014.57 1014.41 1014.31 1014.30 1014.40 1014.58 1014.81 1015.03 1015.21 1015.32 1015.36 1015.34 1015.31 1015.29 1015.33
1010.98 1011.93 1012.97 1013.90 1014.57 1014.82 1014.59 1013.91 1012.87 1011.64 1010.42 1009.41 1008.75 1008.51 1008.68 1009.20 1009.93 1010.73 1011.46 1012.03 1012.39 1012.57 1012.62 1012.61 1012.64 1012.74 1012.95 1013.25 1013.59 1013.92 1014.17 1014.32 1014.35 1014.29 1014.17 1014.05 1013.97 1013.97 1014.06 1014.21 1014.40 1014.59 1014.74 1014.83 1014.86 1014.85 1014.81 1014.80 1014.82
1011.31 1012.35 1013.44 1014.41 1015.07 1015.29 1015.00 1014.23 1013.09 1011.73 1010.38 1009.23 1008.42 1008.05 1008.12 1008.55 1009.23 1010.02 1010.76 1011.37 1011.79 1012.02 1012.10 1012.12 1012.14 1012.23 1012.40 1012.66 1012.98 1013.30 1013.58 1013.77 1013.86 1013.86 1013.80 1013.72 1013.67 1013.67 1013.73 1013.85 1014.00 1014.15 1014.27 1014.34 1014.37 1014.35 1014.31 1014.28 1014.29
1011.65 1012.70 1013.79 1014.72 1015.34 1015.52 1015.19 1014.38 1013.18 1011.77 1010.36 1009.12 1008.22 1007.74 1007.69 1008.02 1008.62 1009.34 1010.06 1010.67 1011.12 1011.39 1011.51 1011.56 1011.60 1011.69 1011.85 1012.10 1012.41 1012.73 1013.03 1013.26 1013.40 1013.46 1013.45 1013.41 1013.37 1013.37 1013.40 1013.48 1013.59 1013.70 1013.79 1013.85 1013.86 1013.85 1013.81 1013.78 1013.76
1011.89 1012.88 1013.88 1014.73 1015.28 1015.40 1015.05 1014.24 1013.07 1011.68 1010.28 1009.03 1008.08 1007.52 1007.36 1007.57 1008.05 1008.68 1009.33 1009.91 1010.35 1010.65 1010.82 1010.91 1010.99 1011.11 1011.30 1011.56 1011.87 1012.21 1012.52 1012.78 1012.97 1013.07 1013.10 1013.09 1013.06 1013.05 1013.06 1013.10 1013.17 1013.24 1013.30 1013.35 1013.36 1013.35 1013.32 1013.29 1013.26
1011.99 1012.84 1013.69 1014.40 1014.83 1014.90 1014.54 1013.78 1012.69 1011.40 1010.07 1008.87 1007.93 1007.32 1007.07 1007.15 1007.49 1007.98 1008.53 1009.04 1009.45 1009.76 1009.98 1010.14 1010.28 1010.46 1010.69 1010.99 1011.33 1011.69 1012.03 1012.31 1012.52 1012.65 1012.71 1012.72 1012.70 1012.68 1012.67 1012.68 1012.71 1012.75 1012.80 1012.83 1012.85 1012.85 1012.84 1012.81 1012.79
Thickness
5832 5829 5826 5815 5798 5782 5779 5794 5808 5808 5808 5817 5822 5816 5804 5797 5788 5778 5800 5808 5807 5804 5803 5802 5801 5801 5800 5799 5798 5797 5796 5796 5795 5794 5793 5791 5790 5788 5787 5785 5783 5781 5780 5778 5777 5776 5775 5774 5773
5834 5831 5820 5807 5786 5768 5778 5801 5806 5811 5817 5824 5822 5816 5807 5801 5805 5802 5804 5807 5808 5806 5805 5803 5802 5801 5800 5799 5797 5796 5796 5795 5794 5793 5792 5790 5789 5787 5786 5784 5783 5781 5779 5778 5776 5775 5774 5773 5772
5836 5833 5813 5798 5784 5777 5786 5806 5812 5819 5826 5825 5818 5816 5809 5802 5807 5806 5809 5810 5808 5806 5805 5803 5802 5800 5799 5798 5797 5796 5795 5794 5793 5792 5791 5789 5788 5786 5785 5783 5782 5780 5779 5777 5776 5775 5774 5773 5772
5834 5822 5810 5792 5785 5800 5808 5815 5822 5819 5822 5825 5818 5808 5811 5817 5816 5813 5813 5811 5808 5805 5804 5803 5802 5800 5799 5798 5797 5795 5794 5793 5792 5791 5790 5788 5787 5786 5784 5783 5781 5780 5778 5777 5775 5775 5774 5773 5772
5833 5814 5795 5786 5794 5812 5823 5828 5828 5819 5816 5817 5816 5802 5802 5816 5821 5817 5813 5811 5808 5806 5804 5803 5801 5800 5799 5797 5796 5794 5793 5791 5790 5789 5788 5787 5786 5786 5784 5783 5781 5779 5778 5776 5775 5775 5774 5773 5772
5821 5809 5787 5782 5798 5816 5827 5832 5828 5820 5815 5815 5812 5802 5800 5814 5815 5814 5814 5811 5809 5806 5804 5802 5801 5800 5798 5796 5795 5793 5792 5790 5789 5788 5787 5785 5785 5784 5783 5781 5780 5779 5777 5776 5775 5774 5773 5772 5771
5818 5805 5791 5796 5802 5812 5824 5834 5827 5819 5814 5815 5817 5800 5800 5808 5814 5815 5813 5811 5808 5806 5804 5802 5800 5799 5797 5796 5794 5793 5791 5789 5788 5786 5785 5784 5784 5783 5782 5781 5780 5778 5777 5776 5775 5774 5773 5771 5771
5834 5812 5799 5802 5805 5810 5830 5836 5835 5827 5820 5828 5824 5802 5797 5808 5815 5815 5812 5808 5806 5804 5803 5801 5800 5798 5797 5795 5794 5792 5790 5788 5787 5785 5784 5783 5782 5782 5781 5780 5779 5778 5777 5776 5775 5774 5773 5772 5771
5841 5807 5795 5808 5813 5817 5833 5832 5834 5839 5830 5827 5827 5820 5817 5819 5816 5810 5805 5803 5802 5801 5801 5800 5799 5797 5796 5794 5792 5791 5789 5787 5785 5784 5783 5782 5781 5781 5781 5779 5779 5778 5777 5776 5775 5774 5774 5772 5771
5830 5802 5811 5833 5836 5832 5836 5835 5834 5828 5819 5817 5819 5822 5823 5819 5813 5806 5801 5799 5798 5798 5799 5800 5799 5797 5795 5794 5792 5790 5788 5786 5784 5783 5783 5782 5781 5780 5780 5779 5778 5777 5777 5776 5775 5774 5773 5772 5771
5834 5821 5835 5844 5849 5846 5839 5837 5840 5826 5812 5816 5815 5816 5818 5815 5811 5807 5803 5801 5800 5801 5800 5800 5799 5797 5795 5793 5791 5789 5788 5786 5784 5783 5782 5781 5780 5779 5779 5779 5778 5777 5776 5776 5775 5774 5773 5772 5771
5839 5841 5848 5849 5854 5850 5842 5839 5833 5829 5825 5831 5830 5826 5819 5813 5810 5808 5805 5803 5802 5801 5801 5801 5800 5798 5796 5794 5792 5790 5788 5786 5784 5783 5782 5780 5779 5778 5778 5778 5777 5777 5776 5775 5775 5773 5772 5771 5771
5842 5845 5853 5855 5855 5853 5848 5839 5835 5831 5838 5836 5831 5825 5818 5814 5812 5811 5810 5806 5804 5802 5801 5801 5800 5798 5796 5794 5792 5790 5788 5786 5784 5783 5781 5780 5779 5778 5778 5777 5777 5777 5776 5775 5774 5773 5772 5771 5771
5848 5849 5852 5853 5854 5853 5842 5837 5834 5831 5840 5834 5828 5823 5820 5817 5815 5811 5809 5805 5804 5803 5802 5801 5800 5799 5796 5794 5792 5790 5788 5786 5784 5782 5781 5780 5779 5778 5777 5776 5776 5776 5776 5775 5774 5773 5772 5771 5771
5854 5843 5843 5848 5850 5849 5843 5824 5828 5837 5837 5830 5827 5825 5821 5819 5817 5814 5812 5809 5807 5805 5803 5801 5800 5798 5796 5794 5792 5790 5788 5786 5784 5782 5781 5779 5778 5777 5776 5775 5775 5775 5775 5774 5773 5772 5772 5770 5770
5843 5829 5817 5839 5848 5848 5833 5807 5829 5840 5834 5827 5826 5825 5822 5820 5819 5818 5816 5812 5810 5806 5804 5803 5802 5798 5796 5793 5791 5790 5788 5786 5784 5782 5781 5780 5778 5777 5775 5774 5774 5774 5774 5773 5772 5770 5769 5768 5767
5819 5807 5811 5830 5850 5848 5832 5815 5832 5840 5835 5828 5827 5825 5822 5819 5819 5819 5818 5815 5812 5809 5805 5802 5801 5798 5795 5793 5791 5789 5787 5785 5784 5782 5781 5779 5778 5777 5775 5773 5773 5773 5772 5771 5771 5769 5767 5766 5766
5803 5807 5815 5822 5844 5845 5830 5823 5834 5840 5837 5831 5829 5826 5823 5820 5820 5821 5819 5817 5813 5810 5807 5803 5801 5798 5795 5792 5790 5787 5785 5784 5783 5782 5780 5779 5778 5776 5775 5773 5773 5772 5771 5769 5768 5766 5766 5765 5765
5823 5817 5815 5830 5850 5840 5829 5826 5832 5838 5835 5830 5827 5826 5823 5822 5824 5823 5821 5817 5813 5809 5806 5803 5800 5797 5795 5790 5787 5784 5781 5782 5782 5782 5781 5779 5778 5776 5774 5773 5772 5771 5769 5767 5766 5765 5763 5762 5763
5826 5816 5818 5831 5848 5840 5826 5825 5835 5837 5835 5835 5832 5828 5825 5821 5820 5820 5819 5816 5812 5809 5806 5803 5800 5798 5795 5793 5790 5786 5783 5782 5781 5781 5780 5779 5777 5776 5774 5772 5771 5770 5767 5765 5763 5762 5759 5758 5759
5822 5818 5820 5822 5835 5835 5823 5812 5821 5830 5835 5835 5834 5831 5829 5826 5821 5820 5818 5815 5812 5809 5807 5805 5801 5799 5797 5794 5790 5786 5782 5780 5778 5777 5777 5778 5777 5775 5773 5772 5770 5768 5766 5763 5762 5760 5757 5753 5754
5814 5836 5837 5831 5814 5800 5809 5781 5807 5818 5820 5825 5827 5828 5828 5828 5825 5822 5819 5815 5813 5812 5810 5807 5803 5800 5797 5794 5789 5783 5778 5774 5775 5776 5776 5776 5776 5774 5773 5771 5769 5767 5765 5762 5760 5759 5756 5753 5749
5832 5845 5838 5831 5814 5799 5801 5784 5794 5812 5809 5817 5825 5829 5830 5831 5829 5825 5823 5820 5818 5815 5811 5807 5803 5799 5796 5793 5789 5784 5780 5777 5777 5775 5774 5773 5773 5773 5771 5770 5768 5766 5763 5761 5758 5756 5755 5752 5749
5846 5834 5824 5812 5795 5776 5792 5784 5783 5803 5814 5822 5829 5832 5832 5831 5829 5826 5824 5821 5817 5815 5811 5807 5802 5798 5795 5792 5788 5784 5780 5777 5774 5772 5770 5770 5769 5769 5769 5768 5766 5764 5762 5759 5756 5755 5753 5751 5749
5832 5798 5771 5767 5756 5764 5791 5786 5789 5821 5833 5832 5832 5834 5834 5832 5828 5823 5820 5817 5814 5812 5809 5805 5800 5796 5794 5790 5787 5784 5780 5777 5774 5771 5769 5767 5765 5765 5765 5765 5763 5761 5759 5757 5755 5753 5750 5748 5746
5820 5800 5766 5752 5747 5762 5784 5780 5802 5834 5841 5842 5841 5838 5834 5830 5828 5825 5821 5818 5815 5812 5808 5804 5799 5796 5793 5789 5785 5782 5779 5776 5773 5771 5769 5766 5764 5763 5763 5762 5761 5759 5757 5755 5753 5750 5748 5746 5743
5814 5802 5799 5772 5765 5757 5766 5785 5807 5830 5830 5832 5833 5832 5828 5828 5827 5824 5821 5817 5813 5810 5807 5804 5799 5795 5791 5788 5784 5781 5778 5774 5771 5769 5767 5765 5764 5763 5761 5759 5757 5755 5753 5752 5749 5746 5744 5742 5741
5826 5814 5787 5769 5750 5743 5758 5769 5779 5804 5811 5819 5823 5823 5824 5825 5824 5822 5819 5815 5812 5809 5806 5803 5800 5795 5791 5787 5783 5780 5776 5773 5770 5767 5764 5762 5761 5760 5757 5755 5753 5751 5749 5747 5744 5742 5740 5738 5737
5813 5805 5787 5767 5762 5745 5739 5760 5806 5808 5813 5815 5818 5821 5821 5821 5821 5820 5817 5814 5810 5807 5803 5799 5797 5793 5788 5784 5781 5777 5773 5770 5767 5763 5761 5759 5757 5755 5753 5750 5748 5745 5744 5742 5740 5738 5736 5734 5732
5816 5805 5787 5765 5760 5756 5747 5763 5816 5814 5817 5817 5816 5819 5821 5820 5819 5817 5813 5809 5805 5801 5799 5796 5793 5790 5786 5782 5777 5773 5770 5767 5763 5760 5758 5755 5752 5750 5748 5746 5743 5741 5739 5737 5735 5733 5731 5728 5726